www.pogodaiklimat.ru
ПОГОДА в Карловаце
Время
(UTC), дата
05 16.09
04 16.09
06 16.09
07 16.09
08 16.09
09 16.09
11 16.09
10 16.09
12 16.09
13 16.09
14 16.09
15 16.09
17 16.09
16 16.09
18 16.09
19 16.09
20 16.09
21 16.09
00 17.09
03 17.09
05 17.09
04 17.09
06 17.09
07 17.09
08 17.09
09 17.09
11 17.09
10 17.09
12 17.09
13 17.09
14 17.09
15 17.09
17 17.09
16 17.09
18 17.09
19 17.09
20 17.09
21 17.09
00 18.09
03 18.09
05 18.09
04 18.09
06 18.09
07 18.09
08 18.09
09 18.09
11 18.09
10 18.09
12 18.09
13 18.09
14 18.09
15 18.09
17 18.09
16 18.09
18 18.09
19 18.09
20 18.09
21 18.09
00 19.09
03 19.09
05 19.09
04 19.09
06 19.09
07 19.09
08 19.09
09 19.09
11 19.09
10 19.09
12 19.09
13 19.09
14 19.09
15 19.09
17 19.09
16 19.09
18 19.09
19 19.09
20 19.09
21 19.09
00 20.09
03 20.09
05 20.09
04 20.09
06 20.09
07 20.09
08 20.09
09 20.09
11 20.09
10 20.09
12 20.09
13 20.09
14 20.09
15 20.09
17 20.09
16 20.09
18 20.09
19 20.09
20 20.09
21 20.09
00 21.09
03 21.09
05 21.09
04 21.09
06 21.09
07 21.09
08 21.09
09 21.09
11 21.09
10 21.09
12 21.09
13 21.09
14 21.09
15 21.09
17 21.09
16 21.09
18 21.09
19 21.09
20 21.09
21 21.09
00 22.09
03 22.09
05 22.09
04 22.09
06 22.09
07 22.09
08 22.09
09 22.09
11 22.09
10 22.09
12 22.09
13 22.09
14 22.09
15 22.09
17 22.09
16 22.09
18 22.09
19 22.09
20 22.09
21 22.09
00 23.09
03 23.09
04 23.09
Ветер
(напр.,м/с)
Видим. Явления Облачность Т
(С)
Тd
(С)
f
(%)
Тe
(С)
Тes
(С)
Комфортность P
(гПа)
Po
(гПа)
Тmin
(С)
Tmax
(С)
R
(мм)
R24
(мм)
S
(см)
ЮВ 1 40 км 8/3 1500 м
[Sc Ac lent Ci fib]
+15.3 +14.8 97 +16 +16 1019.6 1006.4
С 1 40 км 4/3 1500 м
[Sc Ac lent]
+15.3 +14.8 97 +16 +16 1019.1 1005.9
СВ 1 35 км 8/4 1500 м
[Sc Ac lent Ci fib]
+16.2 +15.5 96 +17 +17 1019.3 1006.1 +14.8
ЮЗ 1 35 км 8/3 1500 м
[Sc Ac lent Ci fib]
+17.9 +16.5 92 +19 +21 1019.5 1006.4
Ю 1 40 км 8/4 1500 м
[Sc Ac lent Ci fib]
+21.4 +16.8 75 +25 +28 комфорт 1019.2 1006.3
СВ 1 40 км 8/3 1500 м
[Sc Ac lent Ci fib]
+23.3 +16.2 64 +28 +32 душно 1018.6 1005.8
ЮВ 1 50 км 8/3 600 м
[Cu hum Ac lent Ci fib]
+25.4 +16.4 57 +29 +35 душно 1017.9 1005.2
СВ 1 50 км 8/3 600 м
[Cu hum Ac lent Ci fib]
+24.4 +15.7 58 +27 +33 жарко 1018.2 1005.4
В 1 40 км 8/1 600 м
[Cu hum Ac lent Cs]
+26.6 +15.1 49 +29 +36 жарко 1017.2 1004.5
СВ 2 40 км 6/1 600 м
[Cu med, cong Ac lent Cs]
+27.3 +14.3 45 +30 +35 душно 1016.8 1004.1
СВ 2 н/о н/о +27.6 +15.7 48 +31 +31 душно 1016.0 1003.3
СВ 2 н/о н/о +27.4 +15.8 49 +30 +30 жарко 1015.6 1002.9
ЮВ 1 н/о н/о +24.0 +17.3 66 +28 +28 душно 1015.5 1002.6
СВ 1 н/о н/о +27.0 +16.7 53 +31 +31 душно 1015.4 1002.7
Ю 1 40 км 8/0
[Ac trans Cs]
+21.2 +17.0 77 +25 +25 комфорт 1015.8 1002.9 +27.5
штиль 0 40 км 4/0
[Ci fib]
+18.9 +17.0 89 +20 +20 1016.3 1003.3
Ю 1 40 км 3/0
[Ci fib]
+17.9 +16.8 93 +19 +19 1016.3 1003.3
штиль 0 н/о н/о +16.7 +16.1 96 +17 +17 1016.5 1003.3
штиль 0 н/о н/о +15.5 +15.3 99 +15 +15 1016.5 1003.2
ЮВ 1 4000 м дымка 1/0
[Ci fib]
+14.8 +14.4 97 +15 +15 1015.7 1002.5
Ю 1 9000 м дымка 5/0
[Ac As Ci fib]
+15.1 +14.6 97 +16 +16 1015.7 1002.5
Ю 1 8000 м дымка 4/0
[Ac As]
+15.2 +14.8 97 +16 +16 1015.5 1002.3
ЮВ 1 10 км 8/3 600 м
[Cu Sc Ac As Cs]
+15.5 +15.0 97 +16 +16 1016.1 1002.9 +14.7
ЮВ 1 20 км 8/5 600 м
[Cu Sc Ac As Cs]
+17.7 +16.6 93 +19 +20 1016.4 1003.3
СВ 1 10 км слаб. дождь 9/6 600 м
[Cu Sc As op]
+18.5 +16.6 89 +20 +21 1017.1 1004.1
Ю 1 8000 м в посл. час дождь 9/5 600 м
[Cu Sc Ac As]
+18.4 +17.1 92 +20 +22 1017.5 1004.5
СЗ 1 10 км слаб. дождь 9/6 600 м
[Cu Sc As op]
+22.7 +17.8 74 +28 +30 душно 1017.4 1004.6
З 1 10 км {дождь} 9/8 600 м
[Cu Sc As op]
+20.6 +18.0 85 +25 +27 комфорт 1017.7 1004.8
З 2 10 км {дождь} 8/5 600 м
[Cu Sc Ac As]
+23.4 +17.3 69 +29 +32 душно 1017.4 1004.6 3 3.0
З 2 20 км {дождь} 8/4 600 м
[Cu Sc Ac As Ci fib]
+25.4 +17.4 61 +29 +33 душно 1017.1 1004.4
н/о н/о +25.5 +18.5 65 1016.9 1004.1
СЗ 1 н/о н/о +24.2 +18.7 71 +29 +29 душно 1016.8 1003.9
штиль 0 н/о н/о +22.2 +18.7 81 +28 +28 душно 1017.8 1004.8
СЗ 1 н/о н/о +24.1 +18.4 70 +29 +29 душно 1016.9 1004.0
С 1 15 км {дождь} 10/8 600 м
[Cu Sc Ac As]
+21.8 +17.7 78 +26 +26 душно 1018.3 1005.4 +25.6 3
С 1 15 км {дождь} 9/8 600 м
[Cu Sc Ac As]
+21.7 +17.2 76 +26 +26 душно 1019.3 1006.4
СВ 2 15 км зарница {дождь} 10/8 600 м
[Cb cap Ac As]
+21.1 +16.4 75 +25 +25 комфорт 1019.8 1006.9
СВ 1 н/о н/о +19.6 +16.3 81 +23 +23 комфорт 1020.9 1007.8
В 1 н/о н/о +17.8 +13.4 75 +19 +19 1022.4 1009.2
ЮВ 1 25 км {дождь, гроза} 10/8 1000 м
[Sc Ac As]
+15.5 +14.2 92 +16 +16 1022.6 1009.4
Ю 1 25 км слаб. дождь 10/6 1000 м
[Sc Ac As]
+13.6 +12.2 91 +14 +14 1024.2 1010.8
СВ 2 25 км {дождь, гроза} 10/8 1000 м
[Sc Ac As]
+15.3 +12.6 84 +15 +15 1023.3 1010.0
СВ 1 20 км в посл. час дождь 10/5 1000 м
[Sc Ac As]
+12.9 +10.2 84 +13 +13 1025.1 1011.7 +12.9 2 4.7
СВ 1 30 км {дождь} 10/8 1000 м
[Sc Ac As]
+12.6 +9.5 81 +13 +13 1025.9 1012.5
СВ 1 35 км {дождь} 10/10 1000 м
[Sc]
+14.6 +9.4 71 +15 +15 1025.8 1012.5
СВ 2 35 км {дождь} 10/10 1000 м
[Sc]
+15.2 +8.4 64 +15 +15 1026.1 1012.8
ЮВ 1 45 км 10/10 1000 м
[Sc]
+16.3 +9.7 65 +17 +17 1025.8 1012.5
СВ 2 40 км {дождь} 10/10 1000 м
[Sc]
+16.2 +7.9 58 +16 +16 1025.9 1012.6
ЮВ 1 45 км 10/10 1000 м
[Sc]
+17.3 +9.3 59 +18 +18 1025.3 1012.1 1.7
С 1 50 км 10/10 1500 м
[Sc]
+17.8 +9.1 57 +19 +19 1025.2 1012.0
штиль 0 н/о н/о +18.2 +9.9 58 +18 +18 1024.9 1011.7
Ю 1 н/о н/о +17.6 +10.1 61 +19 +19 1024.7 1011.4
штиль 0 н/о н/о +16.5 +12.7 78 +16 +16 1024.9 1011.6
Ю 1 н/о н/о +17.2 +11.1 67 +18 +18 1024.8 1011.5
С 1 35 км 8/8 1500 м
[Sc]
+14.8 +11.7 82 +15 +15 1025.2 1011.9 +18.5
штиль 0 30 км 8/8 1500 м
[Sc]
+13.6 +12.5 93 +13 +13 1025.6 1012.2
С 1 20 км 8/8 1500 м
[Sc]
+12.5 +11.6 94 +12 +12 1025.7 1012.3
Ю 1 н/о н/о +11.5 +11.1 97 +11 +11 1026.0 1012.4
штиль 0 н/о н/о +10.1 +9.9 99 +9 +9 1025.4 1011.8
ЮВ 1 20 км 9/9 1000 м
[Sc]
+10.6 +10.0 96 +10 +10 1024.5 1011.0
штиль 0 15 км 8/3 1500 м
[Sc Ac lent Ci fib]
+9.8 +9.2 96 +9 +9 1024.7 1011.1
ЮВ 1 25 км 8/5 1500 м
[Sc Ac lent]
+10.8 +10.2 96 +10 +10 1024.4 1010.9
штиль 0 900 м туман 8/4 200 м
[St Ac lent Ci fib]
+10.5 +9.9 96 +10 +10 1024.6 1011.1 +9.8
С 1 8000 м дымка {туман} 9/3 1500 м
[Sc Ac cast Cs]
+11.3 +10.7 96 +11 +12 1024.6 1011.1
Ю 1 15 км {туман} 8/3 1500 м
[Sc Ac cast Cs]
+13.3 +11.4 88 +13 +16 1024.6 1011.2
С 1 25 км {туман} 8/1 1500 м
[Sc Ac cast Cs]
+16.0 +11.7 76 +17 +22 1024.4 1011.1
В 2 35 км {туман} 8/1 600 м
[Cu hum Ac lent Cs]
+19.4 +11.6 61 +21 +27 комфорт 1022.7 1009.6
СВ 1 30 км {туман} 6/0
[Ac lent Cs]
+18.2 +11.7 66 +20 +28 1023.5 1010.4
СВ 2 40 км 8/1 600 м
[Cu hum Ac lent Cs]
+20.0 +9.5 51 +22 +27 комфорт 1022.1 1009.0
СВ 2 50 км 6/1 600 м
[Cu hum Ac lent Cs]
+21.2 +8.7 45 +22 +28 комфорт 1021.3 1008.3
СВ 2 н/о н/о +21.5 +7.4 40 +22 +22 комфорт 1020.6 1007.6
СВ 2 н/о н/о +20.6 +7.3 42 +22 +22 комфорт 1020.2 1007.1
штиль 0 н/о н/о +16.7 +11.5 71 +17 +17 1019.8 1006.6
СВ 1 н/о н/о +19.4 +10.7 57 +22 +22 комфорт 1019.8 1006.7
штиль 0 20 км 3/0
[Ac lent Ci fib]
+13.9 +10.9 82 +14 +14 1020.1 1006.8 +21.5
ЮВ 1 15 км 1/0
[Ci fib]
+12.0 +10.9 93 +12 +12 1020.2 1006.8
Ю 1 8000 м дымка ясно +10.9 +10.0 94 +10 +10 1020.4 1007.0
штиль 0 н/о н/о +9.9 1020.2 1006.6
штиль 0 н/о н/о +7.9 +7.8 99 +7 +7 1020.1 1006.4
В 1 6000 м дымка 1/0
[Ac lent]
+6.7 +6.3 97 +5 +5 1019.5 1005.9
штиль 0 20 км 6/3 1000 м
[Sc Ac trans Ci fib]
+6.6 +6.2 97 +5 +5 1019.6 1005.9
ЮВ 1 8000 м дымка 5/3 1000 м
[Sc Ac trans]
+6.6 +6.2 97 +5 +5 1019.6 1005.9
СВ 1 30 км 8/3 1000 м
[Sc Ac trans Ci fib]
+8.9 +8.5 97 +8 +8 1019.5 1006.0 +6.6
СВ 1 35 км 6/1 1000 м
[Sc Ac trans Ci fib]
+10.4 +10.0 97 +10 +12 1019.7 1006.2
ЮВ 1 50 км 5/0
[Ac trans Ci fib]
+13.9 +10.7 81 +14 +19 1019.5 1006.2
СВ 1 50 км 5/0
[Ac trans Ci fib]
+17.5 +10.2 62 +19 +19 1018.9 1005.7
СВ 2 50 км 3/0
[Ac trans]
+21.3 +7.5 41 +22 +31 комфорт 1018.2 1005.2
Ю 1 50 км 3/0
[Ac trans Ci fib]
+18.9 +8.3 50 +21 +30 комфорт 1018.8 1005.7
СВ 1 50 км 1/0
[Ac trans]
+22.0 +7.3 39 +23 +34 комфорт 1017.6 1004.7
ЮЗ 1 50 км ясно +22.8 +10.6 46 +25 +25 комфорт 1016.7 1003.8
ЮВ 2 н/о н/о +23.1 +9.9 43 +25 +25 комфорт 1016.3 1003.4
В 1 н/о н/о +22.9 +10.7 46 +25 +25 комфорт 1016.1 1003.2
штиль 0 н/о н/о +18.4 +14.2 77 +19 +19 1016.3 1003.2
СВ 1 н/о н/о +22.0 +11.8 52 +24 +24 комфорт 1016.1 1003.1
СВ 1 50 км 3/1 1500 м
[Sc Ac lent]
+15.6 +12.2 80 +16 +16 1016.8 1003.6 +23.6
СВ 1 50 км 1/1 1500 м
[Sc]
+14.1 +12.4 89 +14 +14 1017.1 1003.9
Ю 1 50 км 1/1 1500 м
[Sc]
+13.2 +11.4 89 +13 +13 1017.3 1004.0
штиль 0 н/о н/о +12.5 +12.1 97 +12 +12 1017.6 1004.2
штиль 0 н/о н/о +11.3 +11.2 99 +11 +11 1017.7 1004.2
Ю 1 40 км 8/6 1500 м
[Sc Ac lent]
+10.8 +10.0 95 +10 +10 1017.4 1004.0
С 1 40 км 8/6 1500 м
[Sc Ac lent]
+10.9 +10.3 96 +10 +10 1018.0 1004.6
ЮВ 1 40 км 6/4 1500 м
[Sc Ac lent]
+10.8 +10.0 95 +10 +10 1017.7 1004.3
СВ 1 40 км 8/5 1500 м
[Sc Ac lent Ci fib]
+12.2 +11.5 95 +12 +12 1018.1 1004.8 +10.8
СВ 1 50 км 8/4 1500 м
[Sc Ac lent]
+15.0 +13.0 88 +15 +16 1018.5 1005.3
СВ 1 50 км 5/3 1500 м
[Sc Ac lent]
+18.0 +13.0 73 +19 +22 1018.2 1005.1
СВ 1 50 км 8/5 1500 м
[Sc Ac lent]
+19.7 +13.1 66 +22 +25 комфорт 1018.1 1005.1
Ю 1 50 км 6/3 1500 м
[Sc Ac lent Ci fib]
+22.9 +12.2 51 +26 +32 жарко 1018.0 1005.1
ЮВ 1 50 км 8/3 1500 м
[Sc Ac lent Ci fib]
+21.3 +12.2 56 +23 +29 комфорт 1018.0 1005.1
СЗ 1 50 км 4/1 1500 м
[Sc Ac lent Ci fib]
+24.1 +12.7 49 +26 +34 жарко 1017.1 1004.3
СВ 1 50 км 3/1 600 м
[Cu med, cong Ac lent Ci fib]
+24.9 +12.8 47 +27 +34 жарко 1016.8 1004.0
СВ 1 н/о н/о +25.8 +15.3 52 +29 +29 душно 1016.1 1003.3
СВ 1 н/о н/о +25.1 +14.3 51 +28 +28 жарко 1015.9 1003.1
штиль 0 н/о н/о +19.9 +16.8 82 +22 +22 комфорт 1016.3 1003.2
С 1 н/о н/о +24.4 +14.8 55 +27 +27 жарко 1016.1 1003.2
ЮВ 1 50 км 1/0
[Ci fib]
+18.2 +15.6 85 +20 +20 1016.5 1003.5 +25.2
СВ 1 50 км 1/0
[Ci fib]
+16.0 +14.3 90 +17 +17 1017.3 1004.1
С 1 50 км 3/0
[Ac lent Ci fib]
+16.0 +14.3 90 +17 +17 1017.3 1004.1
ЮВ 1 н/о н/о +16.0 +15.6 97 +17 +17 1016.8 1003.6
штиль 0 н/о н/о +14.9 +14.3 96 +15 +15 1016.4 1003.1
Ю 1 30 км 9/9 1000 м
[Sc]
+14.0 +13.3 96 +14 +14 1016.5 1003.3
СВ 1 10 км 8/6 1500 м
[Sc Ac lent]
+13.2 +12.7 97 +13 +13 1016.4 1003.1
ЮВ 1 5000 м дымка 4/3 1500 м
[Sc Ac lent]
+13.3 +12.8 97 +13 +13 1016.6 1003.3
Ю 1 10 км 10/10 600 м
[St]
+14.0 +13.5 97 +14 +14 1016.0 1002.8 +13.1
СВ 1 15 км в посл. час дождь 9/9 1000 м
[Sc]
+15.0 +14.3 96 +15 +16 1016.5 1003.3
Ю 1 20 км 10/8 1500 м
[Sc Ac As]
+16.3 +15.8 97 +17 +17 1016.8 1003.7
С 1 25 км 9/6 1500 м
[Sc Ac As]
+18.7 +16.3 86 +21 +23 комфорт 1016.6 1003.6
З 1 35 км 8/5 1500 м
[Sc Ac lent]
+22.1 +15.9 68 +26 +29 душно 1015.5 1002.6
С 1 30 км 8/5 1500 м
[Sc Ac lent]
+21.2 +16.2 73 +25 +27 комфорт 1015.8 1002.9
Ю 1 40 км 8/3 600 м
[Cu med, cong Ac lent Ci fib]
+24.3 +15.4 58 +27 +32 жарко 1014.8 1002.0 0.1 0.1
ЮЗ 1 40 км 8/3 600 м
[Cu med, cong Ac lent Ci fib]
+24.4 +15.5 58 +27 +31 жарко 1014.0 1001.3
Ю 1 н/о н/о +25.0 +16.8 60 +29 +29 душно 1013.3 1000.5
ЮЗ 1 н/о н/о +22.7 +16.8 69 +27 +27 душно 1013.1 1000.2
З 1 н/о н/о +18.5 +17.2 92 +20 +20 1013.1 1000.0
СЗ 1 н/о н/о +19.7 +17.5 87 +23 +23 комфорт 1013.3 1000.3
З 1 40 км 8/3 1500 м
[Sc Ac As Ci fib]
+17.0 +15.7 92 +18 +18 1013.4 1000.4 +25.2 2
Ю 1 40 км 3/1 1500 м
[Sc Ac lent Ci fib]
+16.7 +15.5 93 +18 +18 1013.5 1000.4
ЮЗ 1 40 км 3/0
[Ac lent Ci fib]
+15.7 +14.9 95 +16 +16 1013.5 1000.4
штиль 0 н/о н/о +14.9 +14.8 99 +15 +15 1012.8 999.6
штиль 0 н/о н/о +15.2 +15.1 99 +15 +15 1012.0 998.8
С 1 2000 м дымка {дождь, туман} 10/10 600 м
[St]
+15.0 +14.6 97 +15 +15 1011.3 998.2
ЮВ 1 800 м слаб. дождь {туман} 10/8 600 м
[Frnb As op]
+14.6 +14.2 97 +15 +15 1011.2 998.1
Местоположение метеостанции Карловац (Хорватия): широта 45.50 долгота 15.57 высота над уровнем моря 111 м.
В архиве по умолчанию представлена погода в Карловаце за последнюю неделю. Архивные данные за месяц целиком и за предыдущие месяцы, начиная с января 2011 года, Вы можете получить, выбрав интересующий диапазон дат из раскрывающегося списка и нажав кнопку "Найти!".
*Определитесь, кто Вы:
Внимание! Время в таблицах - всемирное. Для получения местного времени необходимо прибавить поправку, которая равна 1 ч.
Смотрите также архив погоды в соседних городах и на ближайших метеорологических станциях:
Партнеры нашего сайта:      
Пояснения к столбцам:
  • Ветер - указаны скорость ветра в м/с - средняя за 10 мин, порывы в срок и между сроками (в фигурных скобках) и направление, откуда дует ветер: С - северный,
  • СВ - северо-восточный, В - восточный, ЮВ - юго-восточный, Ю - южный, ЮЗ - юго-западный, З - западный, СЗ - северо-западный.
  • Видимость - горизонтальная дальность видимости в метрах или километрах. При видимости от 1 до 10 км при отсутствии осадков обычно наблюдается дымка, при ухудшении видимости до 1 км и менее - туман. В сухую погоду видимость может ухудшаться дымом, пылью или мглою.
  • Явления - указаны атмосферные явления, наблюдавшиеся в срок или в последний час перед сроком; фигурными скобками обозначены явления, наблюдавшиеся между сроками (за 1-3 часа до срока); квадратными скобками обозначены град или гололедные отложения с указанием их диаметра в мм.
  • Облачность - указаны через наклонную черту общая и нижняя облачность в баллах и высота нижней границы облаков в метрах; квадратными скобками обозначены формы облаков: Ci - перистые, Cs - перисто-слоистые, Cc - перисто-кучевые, Ac - высококучевые, As - высокослоистые, Sc - слоисто-кучевые, Ns - слоисто-дождевые, Cu - кучевые, Cb - кучево-дождевые. Подробнее классификацию облаков см. в Атласе облаков (PDF).
  • T - Температура воздуха - температура, измеренная на высоте 2 м над землей.
  • Td - Температура точки росы - температура, при понижении до которой содержащийся в воздухе водяной пар достигнет насыщения.
  • f - Относительная влажность воздуха - влажноcть воздуха, измеренная на высоте 2 м над землей.
  • Te - Эффективная температура - температура, которую ощущает одетый по сезону человек в тени. Характеристика душности погоды. При расчете учитывается влияние влажности воздуха и скорости ветра на теплоощущения человека.
  • Tes - Эффективная температура на солнце - температура, которую ощущает человек, с поправкой на солнечный нагрев. Характеристика знойности погоды. Зависит от высоты солнца над горизонтом, облачности и скорости ветра. Ночью, в пасмурную погоду, а также при ветре 12 м/с и более поправка равна нулю.
  • P - Атмосферное давление - приведенное к уровню моря атмосферное давление.
  • Po - Атмосферное давление - измеренное на уровне метеостанции атмосферное давление.
  • Tmin - Минимальная температура - минимум температуры воздуха на высоте 2 м над землей.
  • Tmax - Максимальная температура - максимум температуры воздуха на высоте 2 м над землей.
  • R - Количество осадков - Количество выпавших осадков за период времени, мм. При наведении курсора мыши на число - период времени, за который выпало указанное количество осадков.
  • R24 - Количество осадков - Количество выпавших осадков за 24 часа, мм.
  • S - Снежный покров - Высота снежного покрова, см. При наведении курсора мыши на число - состояние снежного покрова и степень покрытия местности в баллах.